Flag for U.S.A. Weather past 2 weeks in Stockton, California, U.S.A.

Now
48 °F

Clear.


Feels Like: 46 °F
Forecast: 41 / 65 °F
Wind: 5 mph from South

Location: Stockton Metropolitan Airport

Current Time: Jan 30, 2015 at 10:37:23 PM

Latest Report: Jan 30, 2015 at 9:55 PM


Visibility: 10 mi

Pressure: 29.89 "Hg

Humidity: 83%

Dew point: 43 °F

Location of StocktonLocation

Historic Weather in Stockton — Graph

°F

Stockton temperature yesterday

Maximum temperature yesterday: 63 °F (at 2:55 PM)
Minimum temperature yesterday: 42 °F (at 3:55 AM)
Average temperature yesterday: 50 °F

Past Weeks' High & Low Weather Summary

 TemperatureHumidityPressure
High66 °F (Jan 30, 3:55 PM)100% (Jan 15, 9:02 PM)30.39 "Hg (Jan 15, 9:02 PM)
Low36 °F (Jan 23, 1:55 AM)50% (Jan 30, 3:55 PM)29.86 "Hg (Jan 30, 4:55 PM)
Average49 °F88%30.18 "Hg
* Reported Jan 15 8:55 PM — Jan 30 8:55 PM, Stockton, Weather by CustomWeather, © 2014

Note: Actual official high and low records may vary slightly from our data, if they occured in-between our weather recording intervals... More about our weather records

Advertising

Stockton weather history for previous 24 hours

 ConditionsComfort  
Time TempWeatherWind HumidityBarometerVisibility
8:55 PM
Jan 30
51 °FClear.3 mph77%29.87 "Hg10 mi
7:55 PM56 °FClear.6 mph75%29.87 "Hg10 mi
6:55 PM58 °FClear.7 mph62%29.88 "Hg10 mi
5:55 PM58 °FClear.5 mph67%29.87 "Hg10 mi
4:55 PM64 °FSunny.6 mph54%29.86 "Hg10 mi
3:55 PM66 °FSunny.9 mph50%29.86 "Hg10 mi
2:55 PM65 °FSunny.8 mph52%29.88 "Hg10 mi
1:55 PM64 °FSunny.7 mph54%29.89 "Hg10 mi
12:55 PM61 °FSunny.7 mph65%29.92 "Hg10 mi
11:55 AM59 °FSunny.7 mph72%29.95 "Hg6 mi
10:55 AM54 °FSunny.3 mph80%30.00 "Hg6 mi
9:55 AM50 °FSunny.No wind83%30.01 "Hg5 mi
8:58 AM43 °FFog.No wind100%30.01 "Hg1 mi
8:02 AM39 °FFog.3 mph93%30.01 "Hg0 mi
7:55 AM39 °FFog.3 mph96%30.01 "Hg1 mi
7:03 AM37 °FFog.No wind100%30.00 "Hg1 mi
6:55 AM38 °FFog.No wind97%30.00 "Hg2 mi
5:55 AM37 °FFog.No wind100%30.00 "Hg0 mi
4:55 AM40 °FFog.3 mph97%30.00 "Hg0 mi
4:04 AM39 °FFog.No wind100%30.01 "Hg1 mi
2:55 AM42 °FFog.No wind92%30.02 "Hg2 mi
1:55 AM46 °FFog.3 mph89%30.03 "Hg3 mi
12:55 AM45 °FFog.No wind93%30.03 "Hg3 mi
11:55 PM
Jan 29
46 °FFog.3 mph93%30.04 "Hg4 mi
10:55 PM45 °FFog.No wind86%30.04 "Hg6 mi
Weather by CustomWeather, © 2014

See weather overviewHow to use our weather pages